Location: Cherry Springs State Park
(41.6616°N, 77.8240°W)
Time: 05:59:16
(UTC-05:00)

Amateur Radio Satellites - All Passes

Search period start: 28 November 2014 05:29
Search period end: 29 November 2014 05:29
Location: Cherry Springs State Park, 41.6616°N, 77.8240°W

Satellite Date Start Highest point End Downlink Frequencies (MHz)
Time Altitude Azimuth
AIST 2 28 Nov 05:37:59 05:42:03 42° 243° (WSW) 05:46:04 435.215
ISS 28 Nov 05:58:24 06:01:11 25° 225° (SW) 06:03:58 145.825
STRAND 1 28 Nov 06:03:15 06:08:22 73° 74° (ENE) 06:13:31 437.568
AO-7 28 Nov 06:06:40 06:14:00 36° 301° (WNW) 06:21:20 29.400- 29.500
Cubesat XI-IV 28 Nov 06:08:03 06:13:08 44° 99° (E) 06:18:10 437.490
O/OREOS (USA 219) 28 Nov 06:14:35 06:18:50 41° 298° (WNW) 06:23:05 437.305
CUBESAT XI-V 28 Nov 06:15:17 06:20:01 85° 257° (WSW) 06:24:46 437.345
JAS-2 28 Nov 06:19:05 06:25:47 49° 292° (WNW) 06:31:43 435.910
PRISM 28 Nov 06:27:24 06:30:37 21° 266° (W) 06:33:51 437.425
CUTE-I 28 Nov 06:48:38 06:53:59 82° 285° (WNW) 06:59:16 437.470
AIST 1 28 Nov 06:54:07 06:58:27 61° 265° (W) 07:02:42
GONETS M04 28 Nov 07:13:36 07:21:25 37° 85° (E) 07:29:15
STRAND 1 28 Nov 07:45:37 07:48:05 13° 270° (W) 07:50:33 437.568
Cubesat XI-IV 28 Nov 07:48:42 07:52:57 25° 296° (WNW) 07:57:11 437.490
HO-68 28 Nov 07:54:30 07:59:29 20° 91° (E) 08:04:26 435.675
SEEDS 28 Nov 08:09:24 08:11:26 13° 91° (E) 08:13:28 437.485
AAUSAT CUBESAT 2 28 Nov 08:21:17 08:23:19 13° 91° (E) 08:25:20 437.432
CUTE-I 28 Nov 08:31:27 08:33:10 12° 303° (WNW) 08:34:53 437.470
COMPASS 1 28 Nov 08:37:12 08:40:35 23° 94° (E) 08:43:57 437.405
GOMX 1 28 Nov 08:38:23 08:41:38 22° 95° (E) 08:44:58 467.674
CANX-2 28 Nov 08:39:22 08:43:21 36° 97° (E) 08:47:18 2200.000
DX 1 28 Nov 08:53:23 08:55:21 13° 91° (E) 08:57:19 434.975-435.025
QB50P1 28 Nov 08:59:17 09:01:02 12° 62° (ENE) 09:02:46 145.935-145.965
CUBEBUG 2 28 Nov 09:00:28 09:01:12 10° 90° (E) 09:01:55 437.445
GONETS M04 28 Nov 09:09:31 09:17:57 49° 285° (WNW) 09:26:30
CUTE 1.7 + AOD 2 28 Nov 09:13:27 09:17:46 80° 102° (ESE) 09:22:05 437.475
BRITE-PL 28 Nov 09:18:54 09:23:03 87° 103° (ESE) 09:27:18 437.365/2234.400
DOVE 4 28 Nov 09:22:12 09:26:17 49° 100° (E) 09:30:31 437.250
POPSAT HIP 1 28 Nov 09:22:42 09:25:58 22° 67° (ENE) 09:29:13 437.405
ZACube-1 28 Nov 09:23:35 09:25:56 14° 92° (E) 09:28:19 437.345
TIGRISAT 28 Nov 09:24:08 09:27:53 31° 69° (ENE) 09:31:39 435.000
VELOX 1 28 Nov 09:34:40 09:36:02 11° 90° (E) 09:37:24 145.980
UNISAT 6 28 Nov 09:38:50 09:42:54 46° 72° (ENE) 09:47:00 437.425
CINEMA 3 28 Nov 09:39:43 09:43:50 47° 99° (E) 09:48:04 145.822/145.860
HO-68 28 Nov 09:40:41 09:47:52 76° 289° (WNW) 09:54:59 435.675
SEEDS 28 Nov 09:43:25 09:47:36 54° 286° (WNW) 09:51:46 437.485
DELFI C3 28 Nov 09:47:41 09:51:45 52° 100° (E) 09:55:47 145.870
UKube-1 28 Nov 09:49:32 09:53:47 52° 100° (E) 09:58:00 .
AAUSAT CUBESAT 2 28 Nov 09:55:10 09:59:19 53° 286° (WNW) 10:03:26 437.432
50 SAT 28 Nov 09:55:35 09:58:01 15° 92° (E) 10:00:27 437.505
FUNcube-1 28 Nov 09:56:42 10:00:34 33° 97° (E) 10:04:28 145.935
POLYITAN 1 28 Nov 09:56:49 10:00:56 51° 73° (ENE) 10:05:03 437.675
QB50P2 28 Nov 09:57:46 10:01:54 52° 73° (ENE) 10:06:03 145.880/145.840
Oscar 11 28 Nov 09:58:50 10:03:12 82° 103° (ESE) 10:07:34 145.826/435.025
AISAT 28 Nov 10:00:40 10:04:11 23° 95° (E) 10:07:41 437.250
DUCHIFAT 1 28 Nov 10:02:05 10:06:15 57° 74° (ENE) 10:10:25 145.980
ANTELSAT 28 Nov 10:07:42 10:11:57 83° 257° (WSW) 10:16:15 437.575/2403.000
COMPASS 1 28 Nov 10:12:35 10:16:20 31° 290° (WNW) 10:20:04 437.405
CANX-2 28 Nov 10:15:51 10:19:03 21° 293° (WNW) 10:22:15 2200.000
GOMX 1 28 Nov 10:16:10 10:19:50 30° 290° (WNW) 10:23:35 467.674
NANOSAT C BR1 28 Nov 10:21:51 10:26:06 84° 257° (WSW) 10:30:22 145.865
SO-50 28 Nov 10:22:03 10:25:12 17° 39° (NE) 10:28:22 436.795
HUMSAT D 28 Nov 10:22:41 10:26:37 38° 98° (E) 10:30:33 437.325/437.525
DX 1 28 Nov 10:27:41 10:31:58 57° 287° (WNW) 10:36:12 434.975-435.025
UWE-3 28 Nov 10:28:56 10:33:13 90° 282° (WNW) 10:37:36 435.000/436.395/437.385
BUGSAT 1 28 Nov 10:29:20 10:33:36 83° 257° (WSW) 10:37:51 437.445
QB50P1 28 Nov 10:32:11 10:36:24 64° 259° (WSW) 10:40:38 145.935-145.965
CUBEBUG 2 28 Nov 10:34:04 10:38:19 68° 285° (WNW) 10:42:40 437.445
CUTE 1.7 + AOD 2 28 Nov 10:52:35 10:53:03 10° 299° (WNW) 10:53:32 437.475
POPSAT HIP 1 28 Nov 10:57:50 11:01:41 33° 263° (W) 11:05:32 437.405
ZACube-1 28 Nov 10:58:28 11:02:35 49° 287° (WNW) 11:06:46 437.345
TIGRISAT 28 Nov 11:01:22 11:04:41 22° 266° (W) 11:08:01 435.000
DOVE 4 28 Nov 11:01:22 11:03:43 15° 295° (WNW) 11:06:06 437.250
VELOX 1 28 Nov 11:08:40 11:13:04 66° 286° (WNW) 11:17:25 145.980
ESTCUBE 1 28 Nov 11:16:23 11:20:52 57° 101° (E) 11:25:18 437.505/2401.250
UNISAT 6 28 Nov 11:17:30 11:19:58 15° 268° (W) 11:22:27 437.425
CINEMA 3 28 Nov 11:18:07 11:20:43 16° 295° (WNW) 11:23:22 145.822/145.860
SPROUT 28 Nov 11:19:05 11:20:58 13° 90° (E) 11:22:51 437.525
DELFI C3 28 Nov 11:24:26 11:26:37 14° 296° (WNW) 11:28:48 145.870
UKube-1 28 Nov 11:27:00 11:29:31 15° 297° (WNW) 11:32:01 .
50 SAT 28 Nov 11:29:40 11:33:31 42° 288° (WNW) 11:37:23 437.505
HO-68 28 Nov 11:30:28 11:34:24 16° 308° (NW) 11:38:20 435.675
FUNcube-1 28 Nov 11:33:28 11:36:45 22° 292° (WNW) 11:40:04 145.935
YUBILEINY 28 Nov 11:33:45 11:38:44 16° 59° (ENE) 11:43:41 435.215
POLYITAN 1 28 Nov 11:35:00 11:37:11 14° 269° (W) 11:39:22 437.675
QB50P2 28 Nov 11:36:02 11:38:08 13° 269° (W) 11:40:15 145.880/145.840
AISAT 28 Nov 11:36:55 11:40:52 33° 291° (WNW) 11:44:48 437.250
Oscar 11 28 Nov 11:38:11 11:38:42 10° 299° (WNW) 11:39:14 145.826/435.025
CUBEBUG 1 28 Nov 11:39:44 11:44:07 83° 284° (WNW) 11:48:26 437.445
DUCHIFAT 1 28 Nov 11:40:46 11:42:29 12° 269° (W) 11:44:12 145.980
Oscar 19 28 Nov 11:52:28 11:56:32 25° 65° (ENE) 12:00:37 437.125/150
HUMSAT D 28 Nov 11:59:15 12:02:10 19° 294° (WNW) 12:05:05 437.325/437.525
SO-50 28 Nov 12:01:30 12:06:24 87° 238° (WSW) 12:11:19 436.795
DANDE 28 Nov 12:17:45 12:19:47 19° 94° (E) 12:21:46 436.750
AUBIESAT-1 28 Nov 12:22:41 12:23:47 11° 92° (E) 12:24:53 437.475
M-CUBED/EXP-1 PRIME 28 Nov 12:28:28 12:31:05 14° 94° (E) 12:33:38 437.505
TISAT 1 28 Nov 12:35:03 12:39:16 79° 285° (WNW) 12:43:27 437.305
ITAMSAT 1 28 Nov 12:50:43 12:55:22 34° 67° (ENE) 13:00:01 435.822/435.867
SPROUT 28 Nov 12:53:13 12:57:25 56° 286° (WNW) 13:01:35 437.525
ESTCUBE 1 28 Nov 12:54:39 12:57:16 15° 297° (WNW) 12:59:52 437.505/2401.250
ITUPSAT 1 28 Nov 12:58:42 13:02:43 26° 95° (E) 13:06:42 437.325
VERMONT LUNAR 28 Nov 12:59:19 13:02:04 21° 152° (SSE) 13:04:51 437.305
PHONESAT 2.4 28 Nov 12:59:39 13:01:59 16° 149° (SSE) 13:04:19 2401.200-2431.200
SWISSCUBE 28 Nov 13:08:18 13:12:43 35° 97° (E) 13:17:05 437.505
CUSAT 1 28 Nov 13:23:08 13:25:12 21° 286° (WNW) 13:27:17 437.405
AO-7 28 Nov 13:24:02 13:29:07 18° 48° (NE) 13:34:12 29.400- 29.500
YUBILEINY 28 Nov 13:28:24 13:37:09 78° 81° (E) 13:45:49 435.215
Oscar 19 28 Nov 13:30:49 13:35:37 41° 262° (W) 13:40:28 437.125/150
Gurwin Techsat 1B 28 Nov 13:37:52 13:43:00 52° 71° (ENE) 13:48:10 435.225
BEESAT 28 Nov 13:38:32 13:43:20 67° 102° (ESE) 13:48:04 436.000
HORYU 2 28 Nov 13:40:05 13:43:28 22° 66° (ENE) 13:46:52 437.375
SO-50 28 Nov 13:45:23 13:46:12 10° 254° (WSW) 13:47:01 436.795
AUBIESAT-1 28 Nov 13:54:26 13:59:23 87° 289° (WNW) 14:04:08 437.475
M-CUBED/EXP-1 PRIME 28 Nov 14:01:38 14:06:34 69° 291° (WNW) 14:11:19 437.505
STARS 28 Nov 14:12:50 14:16:12 21° 94° (E) 14:19:32 437.465
MaSat-1 28 Nov 14:15:29 14:18:15 39° 113° (ESE) 14:20:48 437.345
ITAMSAT 1 28 Nov 14:30:16 14:34:50 30° 264° (W) 14:39:25 435.822/435.867
ITUPSAT 1 28 Nov 14:36:19 14:40:38 34° 292° (WNW) 14:44:56 437.325
VERMONT LUNAR 28 Nov 14:36:36 14:40:10 58° 168° (SSE) 14:43:44 437.305
PHONESAT 2.4 28 Nov 14:36:41 14:40:17 49° 164° (SSE) 14:43:53 2401.200-2431.200
O/OREOS (USA 219) 28 Nov 14:44:56 14:49:07 38° 62° (ENE) 14:53:18 437.305
SWISSCUBE 28 Nov 14:46:30 14:50:24 25° 294° (WNW) 14:54:17 437.505
JAS-2 28 Nov 14:47:10 14:52:05 19° 55° (NE) 14:56:59 435.910
KKS-1 28 Nov 14:58:27 15:02:55 83° 284° (WNW) 15:07:21 437.445
RS-15 28 Nov 15:03:43 15:13:59 48° 111° (ESE) 15:24:12 29.354- 29.394
AO-7 28 Nov 15:12:17 15:20:32 75° 69° (ENE) 15:28:51 29.400- 29.500
HORYU 2 28 Nov 15:15:51 15:19:55 36° 262° (W) 15:24:02 437.375
BEESAT 28 Nov 15:18:01 15:20:36 15° 299° (WNW) 15:23:11 436.000
Gurwin Techsat 1B 28 Nov 15:19:27 15:23:16 20° 268° (W) 15:27:06 435.225
YUBILEINY 28 Nov 15:26:49 15:32:54 22° 281° (W) 15:38:59 435.215
AUBIESAT-1 28 Nov 15:31:31 15:33:34 13° 306° (NW) 15:35:36 437.475
M-CUBED/EXP-1 PRIME 28 Nov 15:40:15 15:40:39 10° 308° (NW) 15:41:03 437.505
STARS 28 Nov 15:48:46 15:52:46 35° 290° (WNW) 15:56:45 437.465
Cubesat XI-IV 28 Nov 15:55:22 15:56:26 11° 56° (NE) 15:57:30 437.490
VERMONT LUNAR 28 Nov 16:14:56 16:18:33 73° 185° (S) 16:22:10 437.305
PHONESAT 2.4 28 Nov 16:15:14 16:18:57 76° 181° (S) 16:22:40 2401.200-2431.200
MOZHAYETS 4 28 Nov 16:23:15 16:26:59 23° 94° (E) 16:30:41
O/OREOS (USA 219) 28 Nov 16:24:56 16:28:15 21° 259° (WSW) 16:31:34 437.305
JAS-2 28 Nov 16:28:12 16:35:54 79° 74° (ENE) 16:43:46 435.910
CUTE-I 28 Nov 16:32:26 16:36:31 23° 63° (ENE) 16:40:37 437.470
AO-7 28 Nov 17:07:43 17:14:01 24° 267° (W) 17:20:24 29.400- 29.500
RS-15 28 Nov 17:15:37 17:26:13 53° 314° (NW) 17:36:55 29.354- 29.394
GONETS M04 28 Nov 17:23:56 17:29:42 19° 61° (ENE) 17:35:25
Cubesat XI-IV 28 Nov 17:30:14 17:35:35 74° 74° (ENE) 17:40:57 437.490
PCSat 28 Nov 17:53:11 17:56:38 17° 105° (ESE) 18:00:05 145.827
VERMONT LUNAR 28 Nov 17:53:28 17:56:48 35° 201° (SSW) 18:00:08 437.305
PHONESAT 2.4 28 Nov 17:54:02 17:57:36 44° 198° (SSW) 18:01:09 2401.200-2431.200
MOZHAYETS 4 28 Nov 18:00:02 18:04:17 35° 290° (WNW) 18:08:30
PRISM 28 Nov 18:09:22 18:13:32 53° 101° (E) 18:17:39 437.425
CUTE-I 28 Nov 18:11:04 18:16:15 49° 260° (W) 18:21:27 437.470
CUBESAT XI-V 28 Nov 18:12:45 18:16:31 24° 94° (E) 18:20:14 437.345
STRAND 1 28 Nov 18:14:22 18:18:27 24° 94° (E) 18:22:29 437.568
JAS-2 28 Nov 18:15:54 18:21:35 22° 271° (W) 18:27:23 435.910
HO-68 28 Nov 18:24:54 18:29:16 17° 53° (NE) 18:33:37 435.675
BEESAT 3 28 Nov 18:32:16 18:35:02 18° 111° (ESE) 18:37:51 437.485
BEESAT 2 28 Nov 18:49:29 18:52:50 25° 113° (ESE) 18:56:14 435.950
BRITE-PL 28 Nov 18:55:06 18:56:40 12° 63° (ENE) 18:58:12 437.365/2234.400
SEEDS 28 Nov 19:04:10 19:04:51 10° 61° (ENE) 19:05:31 437.485
Cubesat XI-IV 28 Nov 19:13:30 19:16:13 14° 270° (W) 19:18:57 437.490
AAUSAT CUBESAT 2 28 Nov 19:15:22 19:15:40 10° 61° (ENE) 19:15:58 437.432
GONETS M04 28 Nov 19:19:03 19:27:56 86° 83° (E) 19:36:43
AIST 1 28 Nov 19:23:34 19:27:57 79° 96° (E) 19:32:24
COMPASS 1 28 Nov 19:30:06 19:32:50 17° 65° (ENE) 19:35:34 437.405
CANX-2 28 Nov 19:33:12 19:36:45 27° 69° (ENE) 19:40:19 2200.000
RS-15 28 Nov 19:33:44 19:41:56 23° 345° (NNW) 19:50:18 29.354- 29.394
PHONESAT 2.4 28 Nov 19:33:58 19:35:50 13° 213° (SSW) 19:37:41 2401.200-2431.200
PCSat 28 Nov 19:34:05 19:39:27 66° 302° (WNW) 19:44:53 145.827
AIST 2 28 Nov 19:36:31 19:40:25 38° 116° (ESE) 19:44:24 435.215
PRISM 28 Nov 19:46:21 19:48:38 14° 297° (WNW) 19:50:54 437.425
GOMX 1 28 Nov 19:46:59 19:50:52 27° 69° (ENE) 19:54:34 467.674
CUBESAT XI-V 28 Nov 19:49:48 19:54:01 34° 290° (WNW) 19:58:11 437.345
DX 1 28 Nov 19:49:58 19:52:01 13° 62° (ENE) 19:54:04 434.975-435.025
STRAND 1 28 Nov 19:53:00 19:57:46 41° 291° (WNW) 20:02:31 437.568
CUTE 1.7 + AOD 2 28 Nov 20:06:45 20:10:53 58° 74° (ENE) 20:15:03 437.475
HO-68 28 Nov 20:08:43 20:15:55 83° 72° (ENE) 20:23:09 435.675
BEESAT 3 28 Nov 20:08:59 20:12:55 44° 308° (NW) 20:16:56 437.485
ZACube-1 28 Nov 20:21:27 20:23:11 12° 63° (ENE) 20:24:55 437.345
BEESAT 2 28 Nov 20:27:13 20:30:58 33° 310° (NW) 20:34:48 435.950
DOVE 4 28 Nov 20:28:21 20:32:46 53° 74° (ENE) 20:36:58 437.250
BRITE-PL 28 Nov 20:29:44 20:34:40 80° 258° (WSW) 20:39:15 437.365/2234.400
VELOX 1 28 Nov 20:33:19 20:35:06 12° 61° (ENE) 20:36:53 145.980
SEEDS 28 Nov 20:35:52 20:40:03 75° 258° (WSW) 20:44:17 437.485
DELFI C3 28 Nov 20:36:58 20:40:38 34° 71° (ENE) 20:44:21 145.870
CINEMA 3 28 Nov 20:42:12 20:46:19 44° 73° (ENE) 20:50:20 145.822/145.860
UKube-1 28 Nov 20:44:54 20:49:04 47° 72° (ENE) 20:53:15 .
AAUSAT CUBESAT 2 28 Nov 20:46:33 20:50:42 76° 258° (WSW) 20:54:54 437.432
50 SAT 28 Nov 20:46:35 20:47:45 11° 63° (ENE) 20:48:54 437.505
FUNcube-1 28 Nov 20:53:36 20:57:06 27° 69° (ENE) 21:00:36 145.935
Oscar 11 28 Nov 20:53:48 20:58:02 65° 75° (ENE) 21:02:20 145.826/435.025
AISAT 28 Nov 20:59:30 21:03:00 23° 66° (ENE) 21:06:30 437.250
COMPASS 1 28 Nov 21:04:18 21:08:15 41° 262° (W) 21:12:14 437.405
CANX-2 28 Nov 21:09:08 21:12:38 25° 265° (W) 21:16:11 2200.000
AIST 2 28 Nov 21:15:39 21:19:10 24° 314° (NW) 21:22:43 435.215
HUMSAT D 28 Nov 21:15:44 21:19:17 28° 69° (ENE) 21:22:49 437.325/437.525
GONETS M04 28 Nov 21:17:51 21:23:31 19° 283° (WNW) 21:29:11
PCSat 28 Nov 21:21:25 21:23:57 13° 323° (NW) 21:26:30 145.827
DX 1 28 Nov 21:23:23 21:27:44 64° 258° (WSW) 21:32:06 434.975-435.025
GOMX 1 28 Nov 21:24:51 21:28:56 29° 263° (W) 21:32:49 467.674
UWE-3 28 Nov 21:26:41 21:30:53 76° 76° (ENE) 21:35:03 435.000/436.395/437.385
CUBEBUG 2 28 Nov 21:32:54 21:37:08 79° 258° (WSW) 21:41:19 437.445
CUTE 1.7 + AOD 2 28 Nov 21:45:37 21:47:11 12° 270° (W) 21:48:46 437.475
RS-15 28 Nov 21:50:48 21:59:35 26° 21° (NNE) 22:08:35 29.354- 29.394
ZACube-1 28 Nov 21:54:57 21:59:05 60° 259° (W) 22:03:12 437.345
HO-68 28 Nov 21:59:49 22:04:23 18° 270° (W) 22:09:00 435.675
ANTELSAT 28 Nov 22:00:18 22:03:39 20° 94° (E) 22:07:03 437.575/2403.000
VELOX 1 28 Nov 22:06:38 22:11:06 72° 258° (WSW) 22:15:34 145.980
DOVE 4 28 Nov 22:08:30 22:10:48 14° 268° (W) 22:13:04 437.250
NANOSAT C BR1 28 Nov 22:08:30 22:11:02 15° 92° (E) 22:13:33 145.865
DELFI C3 28 Nov 22:13:07 22:16:02 19° 267° (W) 22:18:58 145.870
BUGSAT 1 28 Nov 22:13:38 22:15:41 14° 91° (E) 22:17:44 437.445
SPROUT 28 Nov 22:14:52 22:16:17 11° 62° (ENE) 22:17:42 437.525
CUSAT 1 28 Nov 22:16:11 22:19:46 19° 73° (ENE) 22:24:00 437.405
ESTCUBE 1 28 Nov 22:16:18 22:20:44 54° 73° (ENE) 22:25:12 437.505/2401.250
QB50P1 28 Nov 22:18:21 22:21:30 20° 94° (E) 22:24:37 145.935-145.965
50 SAT 28 Nov 22:18:32 22:22:31 64° 259° (WSW) 22:26:32 437.505
CINEMA 3 28 Nov 22:21:10 22:23:45 15° 268° (W) 22:26:18 145.822/145.860
UKube-1 28 Nov 22:22:49 22:25:28 16° 268° (W) 22:28:08 .
FUNcube-1 28 Nov 22:29:59 22:33:26 25° 265° (W) 22:36:52 145.935
Oscar 11 28 Nov 22:33:26 22:34:39 11° 271° (W) 22:35:51 145.826/435.025
AISAT 28 Nov 22:35:21 22:39:27 35° 262° (W) 22:43:33 437.250
CUBEBUG 1 28 Nov 22:36:03 22:40:30 85° 75° (ENE) 22:44:58 437.445
ISS 28 Nov 22:39:24 22:42:41 88° 145° (SE) 22:45:59 145.825
POPSAT HIP 1 28 Nov 22:42:59 22:46:55 37° 98° (E) 22:50:50 437.405
TIGRISAT 28 Nov 22:51:33 22:56:00 70° 102° (ESE) 23:00:33 435.000
HUMSAT D 28 Nov 22:51:49 22:55:06 23° 265° (W) 22:58:23 437.325/437.525
DANDE 28 Nov 22:55:03 22:59:26 34° 77° (ENE) 23:05:07 436.750
UNISAT 6 28 Nov 23:06:59 23:11:28 79° 284° (WNW) 23:16:03 437.425
AUBIESAT-1 28 Nov 23:11:27 23:13:53 15° 56° (NE) 23:16:25 437.475
M-CUBED/EXP-1 PRIME 28 Nov 23:18:17 23:21:15 19° 58° (ENE) 23:24:23 437.505
POLYITAN 1 28 Nov 23:18:18 23:22:33 84° 284° (WNW) 23:26:47 437.675
QB50P2 28 Nov 23:19:02 23:23:17 83° 284° (WNW) 23:27:31 145.880/145.840
DUCHIFAT 1 28 Nov 23:23:00 23:27:13 76° 285° (WNW) 23:31:24 145.980
TISAT 1 28 Nov 23:27:44 23:32:00 80° 75° (ENE) 23:36:16 437.305
ANTELSAT 28 Nov 23:36:25 23:40:34 39° 289° (WNW) 23:44:48 437.575/2403.000
NANOSAT C BR1 28 Nov 23:43:08 23:47:09 44° 288° (WNW) 23:51:09 145.865
SPROUT 28 Nov 23:47:29 23:51:47 72° 258° (WSW) 23:56:06 437.525
BUGSAT 1 28 Nov 23:47:33 23:51:28 46° 288° (WNW) 23:55:20 437.445
MaSat-1 28 Nov 23:52:51 23:55:11 79° 64° (ENE) 23:57:35 437.345
QB50P1 28 Nov 23:53:39 23:57:29 34° 290° (WNW) 00:01:17 145.935-145.965
ESTCUBE 1 28 Nov 23:55:24 23:57:57 15° 269° (W) 00:00:31 437.505/2401.250
CUSAT 1 28 Nov 23:57:57 00:02:54 60° 263° (W) 00:09:30 437.405
RS-15 29 Nov 00:03:38 00:14:46 63° 51° (NE) 00:26:21 29.354- 29.394
ITUPSAT 1 29 Nov 00:05:54 00:10:07 32° 68° (ENE) 00:14:22 437.325
SWISSCUBE 29 Nov 00:15:13 00:19:44 42° 70° (ENE) 00:24:16 437.505
ISS 29 Nov 00:17:06 00:19:40 21° 343° (NNW) 00:22:15 145.825
POPSAT HIP 1 29 Nov 00:19:34 00:22:34 19° 294° (WNW) 00:25:35 437.405
TIGRISAT 29 Nov 00:30:20 00:32:13 13° 298° (WNW) 00:34:06 435.000
YUBILEINY 29 Nov 00:37:01 00:42:13 18° 77° (ENE) 00:47:24 435.215
DANDE 29 Nov 00:38:31 00:42:52 31° 265° (W) 00:48:25 436.750
AUBIESAT-1 29 Nov 00:44:09 00:48:16 63° 254° (WSW) 00:52:47 437.475
BEESAT 29 Nov 00:45:15 00:50:02 79° 75° (ENE) 00:54:52 436.000
M-CUBED/EXP-1 PRIME 29 Nov 00:51:53 00:55:52 47° 257° (WSW) 01:00:15 437.505
ITAMSAT 1 29 Nov 01:05:55 01:07:09 11° 88° (E) 01:08:22 435.822/435.867
STARS 29 Nov 01:10:47 01:14:01 21° 66° (ENE) 01:17:16 437.465
Oscar 19 29 Nov 01:41:42 01:46:52 68° 102° (ESE) 01:52:01 437.125/150
ITUPSAT 1 29 Nov 01:43:51 01:47:59 28° 264° (W) 01:52:09 437.325
SWISSCUBE 29 Nov 01:54:10 01:57:46 21° 267° (W) 02:01:23 437.505
Gurwin Techsat 1B 29 Nov 01:54:41 01:58:35 20° 92° (E) 02:02:28 435.225
ISS 29 Nov 01:55:18 01:57:14 15° 3° (N) 01:59:10 145.825
KKS-1 29 Nov 01:56:51 02:01:18 89° 256° (WSW) 02:05:47 437.445
RS-15 29 Nov 02:16:34 02:26:39 40° 252° (WSW) 02:37:09 29.354- 29.394
SO-50 29 Nov 02:17:06 02:20:57 28° 113° (ESE) 02:24:54 436.795
BEESAT 29 Nov 02:27:14 02:28:27 11° 271° (W) 02:29:39 436.000
YUBILEINY 29 Nov 02:28:52 02:37:41 88° 96° (E) 02:46:30 435.215
PCSat 29 Nov 02:39:25 02:43:12 19° 43° (NE) 02:46:57 145.827
ITAMSAT 1 29 Nov 02:42:05 02:47:18 87° 285° (WNW) 02:52:27 435.822/435.867
STARS 29 Nov 02:46:10 02:50:15 38° 262° (W) 02:54:22 437.465
BEESAT 3 29 Nov 02:51:26 02:54:06 16° 41° (NE) 02:56:46 437.485
HORYU 2 29 Nov 03:06:55 03:11:12 41° 99° (E) 03:15:27 437.375
BEESAT 2 29 Nov 03:09:18 03:12:31 21° 44° (NE) 03:15:41 435.950
AO-7 29 Nov 03:14:43 03:21:05 24° 93° (E) 03:27:25 29.400- 29.500
Oscar 19 29 Nov 03:22:32 03:25:38 16° 299° (WNW) 03:28:45 437.125/150
MOZHAYETS 4 29 Nov 03:25:52 03:29:29 23° 66° (ENE) 03:33:07
ISS 29 Nov 03:31:47 03:34:41 28° 23° (NNE) 03:37:35 145.825
Gurwin Techsat 1B 29 Nov 03:33:41 03:38:49 51° 289° (WNW) 03:43:56 435.225
SO-50 29 Nov 03:57:13 04:01:23 35° 312° (NW) 04:05:41 436.795
AIST 2 29 Nov 03:58:21 04:02:10 30° 48° (NE) 04:05:56 435.215
PCSat 29 Nov 04:21:49 04:27:16 80° 242° (WSW) 04:32:40 145.827
ITAMSAT 1 29 Nov 04:24:08 04:25:58 12° 302° (WNW) 04:27:49 435.822/435.867
BEESAT 3 29 Nov 04:28:36 04:32:46 66° 240° (WSW) 04:36:52 437.485
YUBILEINY 29 Nov 04:29:37 04:35:42 20° 298° (WNW) 04:41:49 435.215
HORYU 2 29 Nov 04:44:19 04:47:35 20° 295° (WNW) 04:50:50 437.375
BEESAT 2 29 Nov 04:46:59 04:51:02 47° 243° (WSW) 04:55:01 435.950
O/OREOS (USA 219) 29 Nov 04:57:20 05:01:33 42° 106° (ESE) 05:05:46 437.305
PRISM 29 Nov 05:00:29 05:04:26 41° 71° (ENE) 05:08:26 437.425
MOZHAYETS 4 29 Nov 05:02:16 05:06:30 36° 263° (W) 05:10:47
AO-7 29 Nov 05:06:14 05:14:36 76° 291° (WNW) 05:22:55 29.400- 29.500
ISS 29 Nov 05:08:16 05:11:26 46° 221° (SW) 05:14:36 145.825
CUBESAT XI-V 29 Nov 05:16:38 05:20:28 25° 67° (ENE) 05:24:19 437.345
